Weather History for Kimball, NE

Change the Weather History Date:

Thursday, July 18, 2013

  Actual Average (KSNY) Record (KSNY)
Temperature  
Mean Temperature 76 °F 76 °F  
Max Temperature 94 °F 91 °F 102 °F (2006)
Min Temperature 59 °F 61 °F 50 °F (1972)
Degree Days  
Heating Degree Days 0 0  
Month to date heating degree days 0  
Since 1 June heating degree days 59  
Since 1 July heating degree days 0  
Cooling Degree Days 12 11  
Month to date cooling degree days 178  
Year to date cooling degree days 337  
Since 1 June cooling degree days 315  
Growing Degree Days 26 (Base 50)    
Moisture  
Dew Point 53 °F    
Average Humidity 50    
Maximum Humidity 88    
Minimum Humidity 19    
Precipitation  
Precipitation 0.00 in 0.11 in 1.13 in (1969)
Month to date precipitation 1.75  
Year to date precipitation 11.69  
Sea Level Pressure  
Sea Level Pressure 30.12 in    
Wind  
Wind Speed 12 mph (WSW)    
Max Wind Speed 32 mph    
Max Gust Speed 40 mph    
Visibility 10 miles    
Events Rain    
T = Trace of Precipitation, MM = Missing Value Source: NWS Daily Summary

Daily Weather History Graph

Daily Weather History Graph

Search for Another Location

Airport:

Trip Planner

Search our weather history database for the weather conditions in past years. The results will help you decide how hot, cold, wet, or windy it might be!

Date:

Astronomy

Jul. 18, 2013 Rise Set
Actual Time 6:37 AM CDT 9:23 PM CDT
Civil Twilight 6:05 AM CDT 9:56 PM CDT
Nautical Twilight 5:24 AM CDT 10:36 PM CDT
Astronomical Twilight 4:37 AM CDT 11:23 PM CDT
Moon 5:23 PM CDT (7/18) 2:30 AM CDT (7/18)
Length of Visible Light 15h 50m
Length of Day
14h 46m
Waxing Gibbous, 77% of the Moon is Illuminated
Jul 18
Waxing Gibbous
Jul 22
Full
Jul 29
Last Quarter
Aug 6
New
Aug 14
First Quarter

Hourly Weather History & Observations

Time (CDT) Temp. Heat Index Dew Point Humidity Pressure Visibility Wind Dir Wind Speed Gust Speed Precip Events Conditions
12:15 AM 72.0 °F - 55.0 °F 55% 30.19 in 10.0 mi SSE 18.4 mph 25.3 mph N/A   Clear
12:35 AM 71.6 °F - 54.7 °F 55% 30.19 in 10.0 mi South 18.4 mph 24.2 mph N/A   Clear
12:55 AM 70.7 °F - 54.5 °F 56% 30.18 in 10.0 mi SSE 18.4 mph 24.2 mph N/A   Clear
1:15 AM 70.0 °F - 54.3 °F 57% 30.18 in 10.0 mi South 16.1 mph 21.9 mph N/A   Clear
1:35 AM 69.3 °F - 54.7 °F 60% 30.18 in 10.0 mi South 17.3 mph 21.9 mph N/A   Clear
1:55 AM 68.5 °F - 55.0 °F 62% 30.18 in 10.0 mi South 16.1 mph - N/A   Clear
2:15 AM 68.0 °F - 55.4 °F 64% 30.17 in 10.0 mi South 15.0 mph 20.7 mph N/A   Clear
2:35 AM 67.5 °F - 55.6 °F 66% 30.17 in 10.0 mi South 13.8 mph - N/A   Clear
2:55 AM 66.9 °F - 55.8 °F 67% 30.16 in 10.0 mi SSE 15.0 mph 20.7 mph N/A   Clear
3:15 AM 66.6 °F - 55.8 °F 68% 30.15 in 10.0 mi SSE 13.8 mph - N/A   Clear
3:35 AM 65.8 °F - 55.8 °F 70% 30.15 in 10.0 mi South 11.5 mph - N/A   Clear
3:55 AM 65.3 °F - 55.8 °F 71% 30.15 in 10.0 mi South 10.4 mph - N/A   Clear
4:15 AM 64.8 °F - 55.8 °F 73% 30.14 in 10.0 mi South 10.4 mph - N/A   Clear
4:35 AM 63.9 °F - 55.8 °F 75% 30.15 in 10.0 mi SSE 6.9 mph - N/A   Clear
4:55 AM 62.8 °F - 55.8 °F 78% 30.15 in 10.0 mi South 6.9 mph - N/A   Clear
5:15 AM 62.6 °F - 55.8 °F 78% 30.14 in 10.0 mi South 5.8 mph - N/A   Clear
5:35 AM 61.3 °F - 55.8 °F 82% 30.13 in 10.0 mi South 10.4 mph - N/A   Clear
5:55 AM 61.2 °F - 55.8 °F 82% 30.13 in 10.0 mi South 5.8 mph - N/A   Clear
6:15 AM 59.9 °F - 55.6 °F 86% 30.13 in 10.0 mi South 6.9 mph - N/A   Clear
6:35 AM 59.5 °F - 55.6 °F 87% 30.13 in 10.0 mi South 8.1 mph - N/A   Clear
6:55 AM 59.0 °F - 55.4 °F 88% 30.13 in 10.0 mi South 6.9 mph - N/A   Clear
7:15 AM 60.3 °F - 56.1 °F 86% 30.13 in 10.0 mi South 5.8 mph - N/A   Clear
7:35 AM 61.5 °F - 56.7 °F 84% 30.14 in 10.0 mi SSW 5.8 mph - N/A   Clear
7:55 AM 63.1 °F - 57.0 °F 80% 30.15 in 10.0 mi SSW 4.6 mph - N/A   Clear
8:15 AM 65.1 °F - 57.4 °F 76% 30.14 in 10.0 mi South 8.1 mph - N/A   Clear
8:35 AM 66.9 °F - 57.6 °F 72% 30.15 in 10.0 mi SSW 8.1 mph - N/A   Clear
8:55 AM 68.7 °F - 57.4 °F 67% 30.15 in 10.0 mi South 5.8 mph - N/A   Clear
9:15 AM 70.0 °F - 57.6 °F 65% 30.15 in 10.0 mi SSW 5.8 mph - N/A   Clear
9:35 AM 71.8 °F - 57.2 °F 60% 30.15 in 10.0 mi SW 4.6 mph - N/A   Clear
9:55 AM 73.6 °F - 56.1 °F 54% 30.15 in 10.0 mi SSW 4.6 mph - N/A   Clear
10:15 AM 74.8 °F - 55.6 °F 51% 30.15 in 10.0 mi West 3.5 mph - N/A   Clear
10:35 AM 77.0 °F - 54.3 °F 45% 30.15 in 10.0 mi Calm Calm - N/A   Clear
10:55 AM 79.5 °F - 53.1 °F 40% 30.14 in 10.0 mi Calm Calm - N/A   Clear
11:15 AM 80.6 °F 80.3 °F 53.8 °F 39% 30.14 in 10.0 mi WNW 4.6 mph - N/A   Clear
11:35 AM 82.4 °F - 52.3 °F 35% 30.14 in 10.0 mi NW 4.6 mph - N/A   Clear
11:55 AM 83.7 °F - 51.3 °F 32% 30.14 in 10.0 mi Calm Calm - N/A   Clear
12:15 PM 85.1 °F - 50.7 °F 30% 30.13 in 10.0 mi NW 3.5 mph - N/A   Clear
12:35 PM 86.4 °F - 50.7 °F 29% 30.13 in 10.0 mi Calm Calm - N/A   Clear
12:55 PM 87.8 °F - 50.4 °F 27% 30.12 in 10.0 mi NNE 3.5 mph - N/A   Clear
1:15 PM 88.3 °F - 49.3 °F 26% 30.11 in 10.0 mi WNW 5.8 mph - N/A   Clear
1:35 PM 88.9 °F - 47.8 °F 24% 30.11 in 10.0 mi NW 5.8 mph - N/A   Clear
1:55 PM 91.2 °F - 47.8 °F 22% 30.10 in 10.0 mi North 6.9 mph - N/A   Clear
2:15 PM 91.4 °F - 47.1 °F 22% 30.10 in 10.0 mi NNW 4.6 mph - N/A   Clear
2:35 PM 93.6 °F - 47.3 °F 20% 30.10 in 10.0 mi North 12.7 mph 18.4 mph N/A   Clear
2:55 PM 93.6 °F - 47.8 °F 21% 30.10 in 10.0 mi NE 10.4 mph - N/A   Clear
3:15 PM 93.2 °F - 48.4 °F 22% 30.09 in 10.0 mi NNE 6.9 mph 20.7 mph N/A   Clear
3:35 PM 94.3 °F - 46.6 °F 19% 30.08 in 10.0 mi North 12.7 mph 19.6 mph N/A   Clear
3:55 PM 94.8 °F - 46.6 °F 19% 30.08 in 10.0 mi North 12.7 mph 20.7 mph N/A   Clear
4:15 PM 94.3 °F - 47.5 °F 20% 30.08 in 10.0 mi NNE 17.3 mph 25.3 mph N/A   Clear
5:15 PM 94.6 °F - 47.7 °F 20% 30.07 in 10.0 mi North 15.0 mph 21.9 mph N/A   Clear
5:35 PM 94.8 °F - 48.2 °F 20% 30.07 in 10.0 mi NNE 12.7 mph 20.7 mph N/A   Clear
5:55 PM 92.7 °F - 46.9 °F 21% 30.06 in 10.0 mi NNE 10.4 mph 19.6 mph N/A   Clear
6:15 PM 94.5 °F - 46.8 °F 19% 30.06 in 10.0 mi North 10.4 mph 17.3 mph N/A   Clear
6:35 PM 94.1 °F - 46.2 °F 19% 30.05 in 10.0 mi North 5.8 mph - N/A   Clear
6:55 PM 94.1 °F - 46.6 °F 20% 30.04 in 10.0 mi NE 12.7 mph - N/A   Clear
7:15 PM 92.5 °F - 47.7 °F 21% 30.04 in 10.0 mi NE 4.6 mph - N/A   Clear
7:35 PM 92.5 °F - 47.8 °F 22% 30.04 in 10.0 mi NNE 5.8 mph - N/A   Clear
7:55 PM 90.0 °F - 47.8 °F 23% 30.04 in 10.0 mi North 5.8 mph - N/A   Clear
8:15 PM 88.3 °F - 48.2 °F 25% 30.05 in 10.0 mi North 4.6 mph - N/A   Clear
8:35 PM 86.7 °F - 49.1 °F 27% 30.06 in 10.0 mi NNW 3.5 mph - N/A   Clear
8:55 PM 78.4 °F - 53.4 °F 42% 30.08 in 10.0 mi West 28.8 mph 39.1 mph N/A   Mostly Cloudy
9:15 PM 76.3 °F - 53.8 °F 45% 30.08 in 10.0 mi West 27.6 mph 36.8 mph N/A   Mostly Cloudy
9:35 PM 72.5 °F - 57.6 °F 59% 30.10 in 10.0 mi WNW 32.2 mph 40.3 mph N/A   Clear
9:55 PM 73.2 °F - 57.6 °F 58% 30.12 in 10.0 mi WNW 21.9 mph 33.4 mph N/A   Mostly Cloudy
10:15 PM 72.9 °F - 57.7 °F 59% 30.13 in 10.0 mi WNW 20.7 mph 28.8 mph N/A   Scattered Clouds
10:35 PM 70.7 °F - 59.4 °F 67% 30.12 in 10.0 mi West 21.9 mph 26.5 mph N/A   Clear
10:55 PM 70.7 °F - 59.4 °F 67% 30.13 in 10.0 mi West 15.0 mph 23.0 mph N/A   Clear
11:15 PM 70.2 °F - 60.1 °F 70% 30.15 in 10.0 mi West 12.7 mph - N/A Rain Rain
11:35 PM 68.9 °F - 60.8 °F 75% 30.17 in 10.0 mi WNW 8.1 mph - N/A   Light Drizzle
11:55 PM 69.4 °F - 60.6 °F 73% 30.19 in 10.0 mi WNW 16.1 mph 20.7 mph N/A Rain Rain